#datetime,building,power
2022-08-17T00:01:00,kcc,27.60
2022-08-17T00:02:00,kcc,9.61
2022-08-17T00:04:00,kcc,17.40
2022-08-17T00:05:00,kcc,9.55
2022-08-17T00:07:00,kcc,29.41
2022-08-17T00:08:00,kcc,19.80
2022-08-17T00:10:00,kcc,34.80
2022-08-17T00:11:00,kcc,19.80
2022-08-17T00:13:00,kcc,39.02
2022-08-17T00:15:00,kcc,28.77
2022-08-17T00:16:00,kcc,15.59
2022-08-17T00:18:00,kcc,29.41
2022-08-17T00:20:00,kcc,25.20
2022-08-17T00:22:00,kcc,17.99
2022-08-17T00:24:00,kcc,19.22
2022-08-17T00:26:00,kcc,15.59
2022-08-17T00:27:00,kcc,7.79
2022-08-17T00:29:00,kcc,19.80
2022-08-17T00:31:00,kcc,21.04
2022-08-17T00:33:00,kcc,31.17
2022-08-17T00:34:00,kcc,15.59
2022-08-17T00:35:00,kcc,18.05
2022-08-17T00:37:00,kcc,32.99
2022-08-17T00:38:00,kcc,19.16
2022-08-17T00:40:00,kcc,41.43
2022-08-17T00:42:00,kcc,34.80
2022-08-17T00:44:00,kcc,23.38
2022-08-17T00:46:00,kcc,23.44
2022-08-17T00:47:00,kcc,11.95
2022-08-17T00:49:00,kcc,31.23
2022-08-17T00:50:00,kcc,15.59
2022-08-17T00:52:00,kcc,31.23
2022-08-17T00:54:00,kcc,31.17
2022-08-17T00:56:00,kcc,23.44
2022-08-17T00:58:00,kcc,17.34
2022-08-17T01:00:00,kcc,15.64
2022-08-17T01:02:00,kcc,17.40
2022-08-17T01:03:00,kcc,7.79
2022-08-17T01:05:00,kcc,19.80
2022-08-17T01:06:00,kcc,9.61
2022-08-17T01:07:00,kcc,19.16
2022-08-17T01:09:00,kcc,46.82
2022-08-17T01:11:00,kcc,52.79
2022-08-17T01:13:00,kcc,39.02
2022-08-17T01:14:00,kcc,13.77
2022-08-17T01:16:00,kcc,21.62
2022-08-17T01:18:00,kcc,17.40
2022-08-17T01:20:00,kcc,19.16
2022-08-17T01:22:00,kcc,24.02
2022-08-17T01:24:00,kcc,30.59
2022-08-17T01:25:00,kcc,15.64
2022-08-17T01:27:00,kcc,29.36
2022-08-17T01:28:00,kcc,13.83
2022-08-17T01:29:00,kcc,13.77
2022-08-17T01:31:00,kcc,29.41
2022-08-17T01:33:00,kcc,17.40
2022-08-17T01:35:00,kcc,17.40
2022-08-17T01:36:00,kcc,9.61
2022-08-17T01:38:00,kcc,19.80
2022-08-17T01:40:00,kcc,19.16
2022-08-17T01:41:00,kcc,13.83
2022-08-17T01:43:00,kcc,37.21
2022-08-17T01:45:00,kcc,36.62
2022-08-17T01:47:00,kcc,35.39
2022-08-17T01:49:00,kcc,19.16
2022-08-17T01:51:00,kcc,18.05
2022-08-17T01:52:00,kcc,9.55
2022-08-17T01:54:00,kcc,17.40
2022-08-17T01:56:00,kcc,21.62
2022-08-17T01:58:00,kcc,21.62
2022-08-17T02:00:00,kcc,20.98
2022-08-17T02:01:00,kcc,10.20
2022-08-17T02:03:00,kcc,21.04
2022-08-17T02:05:00,kcc,27.60
2022-08-17T02:07:00,kcc,23.38
2022-08-17T02:08:00,kcc,9.61
2022-08-17T02:09:00,kcc,9.61
2022-08-17T02:11:00,kcc,19.80
2022-08-17T02:12:00,kcc,9.55
2022-08-17T02:14:00,kcc,19.80
2022-08-17T02:15:00,kcc,9.61
2022-08-17T02:17:00,kcc,21.62
2022-08-17T02:19:00,kcc,28.77
2022-08-17T02:21:00,kcc,37.21
2022-08-17T02:23:00,kcc,32.99
2022-08-17T02:25:00,kcc,31.82
2022-08-17T02:27:00,kcc,20.98
2022-08-17T02:29:00,kcc,23.44
2022-08-17T02:30:00,kcc,9.61
2022-08-17T02:32:00,kcc,17.99
2022-08-17T02:33:00,kcc,9.61
2022-08-17T02:34:00,kcc,9.61
2022-08-17T02:36:00,kcc,21.56
2022-08-17T02:38:00,kcc,19.80
2022-08-17T02:40:00,kcc,21.04
2022-08-17T02:42:00,kcc,23.38
2022-08-17T02:44:00,kcc,19.80
2022-08-17T02:45:00,kcc,11.37
2022-08-17T02:47:00,kcc,19.80
2022-08-17T02:48:00,kcc,15.64
2022-08-17T02:50:00,kcc,25.20
2022-08-17T02:52:00,kcc,23.38
2022-08-17T02:54:00,kcc,21.62
2022-08-17T02:56:00,kcc,19.16
2022-08-17T02:58:00,kcc,21.62
2022-08-17T03:00:00,kcc,23.38
2022-08-17T03:01:00,kcc,17.40
2022-08-17T03:02:00,kcc,17.40
2022-08-17T03:04:00,kcc,37.21
2022-08-17T03:06:00,kcc,35.39
2022-08-17T03:08:00,kcc,21.04
2022-08-17T03:10:00,kcc,19.80
2022-08-17T03:12:00,kcc,21.56
2022-08-17T03:13:00,kcc,9.61
2022-08-17T03:14:00,kcc,9.61
2022-08-17T03:16:00,kcc,21.62
2022-08-17T03:18:00,kcc,19.16
2022-08-17T03:19:00,kcc,12.01
2022-08-17T03:20:00,kcc,9.61
2022-08-17T03:22:00,kcc,19.80
2022-08-17T03:24:00,kcc,20.98
2022-08-17T03:26:00,kcc,17.99
2022-08-17T03:28:00,kcc,21.62
2022-08-17T03:30:00,kcc,19.22
2022-08-17T03:32:00,kcc,26.95
2022-08-17T03:33:00,kcc,10.25
2022-08-17T03:35:00,kcc,17.40
2022-08-17T03:37:00,kcc,17.34
2022-08-17T03:39:00,kcc,19.80
2022-08-17T03:40:00,kcc,9.61
2022-08-17T03:42:00,kcc,17.40
2022-08-17T03:44:00,kcc,21.62
2022-08-17T03:46:00,kcc,29.41
2022-08-17T03:48:00,kcc,36.56
2022-08-17T03:50:00,kcc,37.21
2022-08-17T03:52:00,kcc,32.99
2022-08-17T03:54:00,kcc,19.80
2022-08-17T03:55:00,kcc,7.79
2022-08-17T03:57:00,kcc,27.01
2022-08-17T03:59:00,kcc,31.23
2022-08-17T04:00:00,kcc,16.17
2022-08-17T04:01:00,kcc,13.18
2022-08-17T04:03:00,kcc,21.62
2022-08-17T04:04:00,kcc,9.61
2022-08-17T04:06:00,kcc,21.62
2022-08-17T04:08:00,kcc,19.16
2022-08-17T04:09:00,kcc,10.20
2022-08-17T04:11:00,kcc,21.04
2022-08-17T04:12:00,kcc,11.95
2022-08-17T04:14:00,kcc,27.01
2022-08-17T04:16:00,kcc,27.60
2022-08-17T04:17:00,kcc,9.61
2022-08-17T04:19:00,kcc,21.62
2022-08-17T04:20:00,kcc,9.61
2022-08-17T04:22:00,kcc,21.56
2022-08-17T04:24:00,kcc,23.44
2022-08-17T04:26:00,kcc,23.38
2022-08-17T04:27:00,kcc,11.43
2022-08-17T04:28:00,kcc,11.95
2022-08-17T04:29:00,kcc,11.43
2022-08-17T04:31:00,kcc,21.62
2022-08-17T04:32:00,kcc,9.55
2022-08-17T04:34:00,kcc,24.02
2022-08-17T04:35:00,kcc,11.43
2022-08-17T04:37:00,kcc,23.38
2022-08-17T04:38:00,kcc,11.37
2022-08-17T04:40:00,kcc,25.84
2022-08-17T04:41:00,kcc,15.59
2022-08-17T04:43:00,kcc,36.62
2022-08-17T04:45:00,kcc,38.96
2022-08-17T04:46:00,kcc,19.80
2022-08-17T04:48:00,kcc,29.41
2022-08-17T04:49:00,kcc,11.43
2022-08-17T04:51:00,kcc,21.56
2022-08-17T04:52:00,kcc,11.43
2022-08-17T04:54:00,kcc,21.56
2022-08-17T04:56:00,kcc,21.62
2022-08-17T04:57:00,kcc,9.61
2022-08-17T04:59:00,kcc,31.17
2022-08-17T05:01:00,kcc,23.44
2022-08-17T05:03:00,kcc,23.38
2022-08-17T05:05:00,kcc,25.20
2022-08-17T05:07:00,kcc,23.38
2022-08-17T05:08:00,kcc,13.83
2022-08-17T05:10:00,kcc,25.20
2022-08-17T05:12:00,kcc,25.78
2022-08-17T05:14:00,kcc,25.20
2022-08-17T05:15:00,kcc,13.83
2022-08-17T05:17:00,kcc,27.01
2022-08-17T05:19:00,kcc,25.78
2022-08-17T05:20:00,kcc,11.43
2022-08-17T05:21:00,kcc,11.37
2022-08-17T05:23:00,kcc,41.43
2022-08-17T05:25:00,kcc,40.78
2022-08-17T05:26:00,kcc,21.62
2022-08-17T05:28:00,kcc,36.56
2022-08-17T05:29:00,kcc,12.01
2022-08-17T05:30:00,kcc,12.01
2022-08-17T05:31:00,kcc,11.43
2022-08-17T05:32:00,kcc,13.77
2022-08-17T05:34:00,kcc,20.98
2022-08-17T05:35:00,kcc,12.01
2022-08-17T05:37:00,kcc,23.44
2022-08-17T05:38:00,kcc,13.77
2022-08-17T05:40:00,kcc,23.44
2022-08-17T05:41:00,kcc,15.59
2022-08-17T05:43:00,kcc,40.78
2022-08-17T05:45:00,kcc,31.23
2022-08-17T05:46:00,kcc,15.59
2022-08-17T05:48:00,kcc,23.38
2022-08-17T05:49:00,kcc,11.43
2022-08-17T05:51:00,kcc,23.38
2022-08-17T05:52:00,kcc,12.01
2022-08-17T05:54:00,kcc,23.38
2022-08-17T05:56:00,kcc,25.20
2022-08-17T05:57:00,kcc,13.83
2022-08-17T05:58:00,kcc,17.40
2022-08-17T06:00:00,kcc,40.78
2022-08-17T06:01:00,kcc,19.80
2022-08-17T06:03:00,kcc,40.78
2022-08-17T06:05:00,kcc,51.04
2022-08-17T06:06:00,kcc,27.01
2022-08-17T06:08:00,kcc,50.98
2022-08-17T06:10:00,kcc,50.39
2022-08-17T06:11:00,kcc,25.20
2022-08-17T06:13:00,kcc,51.04
2022-08-17T06:14:00,kcc,23.38
2022-08-17T06:16:00,kcc,52.79
2022-08-17T06:18:00,kcc,52.21
2022-08-17T06:20:00,kcc,49.22
2022-08-17T06:22:00,kcc,36.56
2022-08-17T06:24:00,kcc,23.44
2022-08-17T06:25:00,kcc,11.95
2022-08-17T06:27:00,kcc,23.44
2022-08-17T06:28:00,kcc,9.61
2022-08-17T06:29:00,kcc,9.55
2022-08-17T06:31:00,kcc,21.62
2022-08-17T06:32:00,kcc,12.01
2022-08-17T06:34:00,kcc,25.20
2022-08-17T06:36:00,kcc,37.21
2022-08-17T06:38:00,kcc,36.62
2022-08-17T06:40:00,kcc,29.36
2022-08-17T06:42:00,kcc,19.80
2022-08-17T06:43:00,kcc,9.61
2022-08-17T06:45:00,kcc,19.22
2022-08-17T06:47:00,kcc,23.38
2022-08-17T06:49:00,kcc,23.38
2022-08-17T06:51:00,kcc,27.60
2022-08-17T06:53:00,kcc,33.05
2022-08-17T06:54:00,kcc,19.80
2022-08-17T06:56:00,kcc,34.80
2022-08-17T06:57:00,kcc,11.95
2022-08-17T06:59:00,kcc,21.04
2022-08-17T07:01:00,kcc,19.80
2022-08-17T07:03:00,kcc,23.38
2022-08-17T07:04:00,kcc,11.43
2022-08-17T07:06:00,kcc,21.56
2022-08-17T07:07:00,kcc,15.59
2022-08-17T07:09:00,kcc,37.21
2022-08-17T07:11:00,kcc,33.05
2022-08-17T07:13:00,kcc,19.75
2022-08-17T07:14:00,kcc,11.43
2022-08-17T07:16:00,kcc,21.62
2022-08-17T07:17:00,kcc,9.55
2022-08-17T07:18:00,kcc,12.01
2022-08-17T07:20:00,kcc,29.41
2022-08-17T07:21:00,kcc,17.40
2022-08-17T07:22:00,kcc,19.22
2022-08-17T07:24:00,kcc,46.76
2022-08-17T07:25:00,kcc,25.20
2022-08-17T07:26:00,kcc,19.80
2022-08-17T07:28:00,kcc,33.05
2022-08-17T07:29:00,kcc,11.95
2022-08-17T07:31:00,kcc,21.62
2022-08-17T07:33:00,kcc,22.79
2022-08-17T07:35:00,kcc,23.44
2022-08-17T07:36:00,kcc,13.77
2022-08-17T07:38:00,kcc,25.20
2022-08-17T07:40:00,kcc,29.41
2022-08-17T07:42:00,kcc,35.39
2022-08-17T07:44:00,kcc,32.99
2022-08-17T07:45:00,kcc,17.40
2022-08-17T07:47:00,kcc,25.20
2022-08-17T07:49:00,kcc,21.62
2022-08-17T07:51:00,kcc,27.60
2022-08-17T07:53:00,kcc,20.98
2022-08-17T07:54:00,kcc,12.01
2022-08-17T07:56:00,kcc,37.21
2022-08-17T07:58:00,kcc,42.60
2022-08-17T08:00:00,kcc,54.61
2022-08-17T08:02:00,kcc,43.18
2022-08-17T08:04:00,kcc,27.01
2022-08-17T08:07:00,kcc,21.62
2022-08-17T08:08:00,kcc,23.38
2022-08-17T08:10:00,kcc,23.38
2022-08-17T08:11:00,kcc,11.43
2022-08-17T08:13:00,kcc,23.38
2022-08-17T08:15:00,kcc,23.44
2022-08-17T08:17:00,kcc,33.57
2022-08-17T08:18:00,kcc,17.40
2022-08-17T08:20:00,kcc,34.80
2022-08-17T08:21:00,kcc,17.99
2022-08-17T08:23:00,kcc,27.01
2022-08-17T08:25:00,kcc,39.02
2022-08-17T08:27:00,kcc,38.96
2022-08-17T08:29:00,kcc,35.39
2022-08-17T08:30:00,kcc,19.22
2022-08-17T08:32:00,kcc,32.99
2022-08-17T08:34:00,kcc,25.84
2022-08-17T08:36:00,kcc,34.75
2022-08-17T08:38:00,kcc,46.82
2022-08-17T08:40:00,kcc,39.02
2022-08-17T08:41:00,kcc,17.40
2022-08-17T08:42:00,kcc,13.77
2022-08-17T08:44:00,kcc,25.20
2022-08-17T08:46:00,kcc,31.82
2022-08-17T08:47:00,kcc,20.98
2022-08-17T08:49:00,kcc,43.24
2022-08-17T08:51:00,kcc,46.76
2022-08-17T08:53:00,kcc,46.82
2022-08-17T08:54:00,kcc,19.22
2022-08-17T08:56:00,kcc,37.21
2022-08-17T08:58:00,kcc,29.36
2022-08-17T09:00:00,kcc,21.62
2022-08-17T09:01:00,kcc,11.43
2022-08-17T09:03:00,kcc,21.56
2022-08-17T09:05:00,kcc,23.44
2022-08-17T09:06:00,kcc,13.18
2022-08-17T09:07:00,kcc,19.80
2022-08-17T09:09:00,kcc,42.60
2022-08-17T09:10:00,kcc,27.60
2022-08-17T09:12:00,kcc,54.61
2022-08-17T09:14:00,kcc,54.61
2022-08-17T09:15:00,kcc,25.20
2022-08-17T09:16:00,kcc,15.59
2022-08-17T09:18:00,kcc,23.38
2022-08-17T09:19:00,kcc,12.01
2022-08-17T09:20:00,kcc,11.43
2022-08-17T09:22:00,kcc,23.38
2022-08-17T09:23:00,kcc,12.01
2022-08-17T09:25:00,kcc,34.80
2022-08-17T09:27:00,kcc,43.18
2022-08-17T09:29:00,kcc,54.61
2022-08-17T09:31:00,kcc,58.18
2022-08-17T09:32:00,kcc,27.60
2022-08-17T09:33:00,kcc,25.20
2022-08-17T09:35:00,kcc,37.21
2022-08-17T09:37:00,kcc,23.44
2022-08-17T09:38:00,kcc,11.37
2022-08-17T09:40:00,kcc,25.20
2022-08-17T09:41:00,kcc,10.20
2022-08-17T09:42:00,kcc,11.43
2022-08-17T09:43:00,kcc,17.40
2022-08-17T09:45:00,kcc,41.37
2022-08-17T09:47:00,kcc,44.41
2022-08-17T09:49:00,kcc,52.79
2022-08-17T09:51:00,kcc,54.61
2022-08-17T09:53:00,kcc,56.43
2022-08-17T09:55:00,kcc,33.57
2022-08-17T09:57:00,kcc,27.01
2022-08-17T09:59:00,kcc,27.60
2022-08-17T10:01:00,kcc,25.20
2022-08-17T10:02:00,kcc,11.43
2022-08-17T10:03:00,kcc,15.59
2022-08-17T10:05:00,kcc,46.76
2022-08-17T10:07:00,kcc,49.22
2022-08-17T10:09:00,kcc,58.18
2022-08-17T10:10:00,kcc,29.41
2022-08-17T10:11:00,kcc,29.41
2022-08-17T10:13:00,kcc,44.41
2022-08-17T10:15:00,kcc,37.21
2022-08-17T10:17:00,kcc,33.57
2022-08-17T10:18:00,kcc,19.22
2022-08-17T10:20:00,kcc,45.00
2022-08-17T10:22:00,kcc,52.21
2022-08-17T10:24:00,kcc,72.60
2022-08-17T10:26:00,kcc,73.77
2022-08-17T10:28:00,kcc,77.99
2022-08-17T10:30:00,kcc,82.21
2022-08-17T10:32:00,kcc,75.59
2022-08-17T10:33:00,kcc,33.63
2022-08-17T10:34:00,kcc,20.98
2022-08-17T10:35:00,kcc,18.05
2022-08-17T10:36:00,kcc,20.98
2022-08-17T10:38:00,kcc,57.01
2022-08-17T10:40:00,kcc,46.76
2022-08-17T10:41:00,kcc,25.25
2022-08-17T10:43:00,kcc,56.37
2022-08-17T10:44:00,kcc,32.99
2022-08-17T10:46:00,kcc,66.62
2022-08-17T10:47:00,kcc,32.99
2022-08-17T10:49:00,kcc,74.41
2022-08-17T10:50:00,kcc,42.60
2022-08-17T10:51:00,kcc,27.60
2022-08-17T10:53:00,kcc,60.00
2022-08-17T10:54:00,kcc,25.78
2022-08-17T10:56:00,kcc,42.60
2022-08-17T10:58:00,kcc,45.00
2022-08-17T11:00:00,kcc,54.61
2022-08-17T11:02:00,kcc,68.44
2022-08-17T11:03:00,kcc,32.99
2022-08-17T11:04:00,kcc,34.80
2022-08-17T11:06:00,kcc,74.36
2022-08-17T11:07:00,kcc,40.84
2022-08-17T11:09:00,kcc,83.96
2022-08-17T11:11:00,kcc,64.22
2022-08-17T11:12:00,kcc,31.17
2022-08-17T11:14:00,kcc,64.22
2022-08-17T11:16:00,kcc,52.79
2022-08-17T11:18:00,kcc,46.82
2022-08-17T11:20:00,kcc,50.98
2022-08-17T11:22:00,kcc,75.64
2022-08-17T11:23:00,kcc,37.21
2022-08-17T11:25:00,kcc,56.37
2022-08-17T11:26:00,kcc,29.41
2022-08-17T11:28:00,kcc,66.56
2022-08-17T11:30:00,kcc,67.85
2022-08-17T11:31:00,kcc,29.36
2022-08-17T11:33:00,kcc,43.24
2022-08-17T11:35:00,kcc,46.76
2022-08-17T11:36:00,kcc,25.20
2022-08-17T11:38:00,kcc,48.63
2022-08-17T11:40:00,kcc,64.22
2022-08-17T11:42:00,kcc,66.56
2022-08-17T11:44:00,kcc,77.99
2022-08-17T11:45:00,kcc,40.84
2022-08-17T11:47:00,kcc,85.78
2022-08-17T11:48:00,kcc,39.02
2022-08-17T11:50:00,kcc,66.56
2022-08-17T11:51:00,kcc,34.80
2022-08-17T11:53:00,kcc,43.18
2022-08-17T11:54:00,kcc,19.22
2022-08-17T11:56:00,kcc,35.39
2022-08-17T11:58:00,kcc,40.84
2022-08-17T12:00:00,kcc,58.18
2022-08-17T12:01:00,kcc,29.41
2022-08-17T12:03:00,kcc,76.17
2022-08-17T12:05:00,kcc,84.02
2022-08-17T12:07:00,kcc,87.60
2022-08-17T12:09:00,kcc,68.38
2022-08-17T12:11:00,kcc,58.18
2022-08-17T12:13:00,kcc,54.61
2022-08-17T12:14:00,kcc,27.60
2022-08-17T12:16:00,kcc,52.21
2022-08-17T12:18:00,kcc,60.59
2022-08-17T12:19:00,kcc,27.60
2022-08-17T12:21:00,kcc,56.43
2022-08-17T12:23:00,kcc,62.40
2022-08-17T12:24:00,kcc,37.21
2022-08-17T12:26:00,kcc,77.99
2022-08-17T12:28:00,kcc,85.78
2022-08-17T12:30:00,kcc,75.64
2022-08-17T12:32:00,kcc,66.56
2022-08-17T12:34:00,kcc,56.43
2022-08-17T12:36:00,kcc,54.61
2022-08-17T12:37:00,kcc,37.21
2022-08-17T12:39:00,kcc,71.95
2022-08-17T12:41:00,kcc,76.23
2022-08-17T12:42:00,kcc,43.18
2022-08-17T12:44:00,kcc,89.41
2022-08-17T12:45:00,kcc,45.00
2022-08-17T12:47:00,kcc,91.17
2022-08-17T12:48:00,kcc,43.24
2022-08-17T12:49:00,kcc,45.00
2022-08-17T12:51:00,kcc,79.80
2022-08-17T12:53:00,kcc,64.16
2022-08-17T12:55:00,kcc,52.79
2022-08-17T12:57:00,kcc,58.24
2022-08-17T12:59:00,kcc,68.38
2022-08-17T13:01:00,kcc,95.39
2022-08-17T13:03:00,kcc,96.04
2022-08-17T13:05:00,kcc,98.96
2022-08-17T13:07:00,kcc,97.79
2022-08-17T13:09:00,kcc,95.39
2022-08-17T13:11:00,kcc,84.02
2022-08-17T13:13:00,kcc,70.20
2022-08-17T13:14:00,kcc,32.99
2022-08-17T13:16:00,kcc,62.40
2022-08-17T13:17:00,kcc,29.41
2022-08-17T13:19:00,kcc,76.23
2022-08-17T13:20:00,kcc,44.36
2022-08-17T13:21:00,kcc,46.82
2022-08-17T13:24:00,kcc,48.63
2022-08-17T13:25:00,kcc,48.57
2022-08-17T13:27:00,kcc,93.63
2022-08-17T13:28:00,kcc,46.76
2022-08-17T13:30:00,kcc,96.04
2022-08-17T13:32:00,kcc,79.80
2022-08-17T13:34:00,kcc,71.95
2022-08-17T13:35:00,kcc,27.60
2022-08-17T13:37:00,kcc,60.00
2022-08-17T13:38:00,kcc,33.63
2022-08-17T13:40:00,kcc,67.79
2022-08-17T13:41:00,kcc,45.00
2022-08-17T13:45:00,kcc,99.61
2022-08-17T13:46:00,kcc,44.41
2022-08-17T13:47:00,kcc,46.82
2022-08-17T13:49:00,kcc,93.57
2022-08-17T13:51:00,kcc,97.79
2022-08-17T13:52:00,kcc,48.63
2022-08-17T13:54:00,kcc,87.60
2022-08-17T13:55:00,kcc,37.15
2022-08-17T13:57:00,kcc,64.22
2022-08-17T13:59:00,kcc,60.59
2022-08-17T14:01:00,kcc,64.22
2022-08-17T14:03:00,kcc,76.23
2022-08-17T14:05:00,kcc,95.39
2022-08-17T14:07:00,kcc,97.79
2022-08-17T14:09:00,kcc,97.21
2022-08-17T14:11:00,kcc,87.60
2022-08-17T14:13:00,kcc,70.78
2022-08-17T14:15:00,kcc,64.22
2022-08-17T14:16:00,kcc,27.01
2022-08-17T14:18:00,kcc,54.55
2022-08-17T14:19:00,kcc,27.60
2022-08-17T14:21:00,kcc,72.01
2022-08-17T14:23:00,kcc,64.22
2022-08-17T14:25:00,kcc,60.59
2022-08-17T14:27:00,kcc,82.21
2022-08-17T14:35:00,kcc,85.84
2022-08-17T14:37:00,kcc,62.40
2022-08-17T14:39:00,kcc,71.95
2022-08-17T14:41:00,kcc,52.79
2022-08-17T14:43:00,kcc,50.45
2022-08-17T14:45:00,kcc,64.80
2022-08-17T14:47:00,kcc,70.20
2022-08-17T14:49:00,kcc,71.95
2022-08-17T14:50:00,kcc,42.60
2022-08-17T14:52:00,kcc,88.24
2022-08-17T14:54:00,kcc,75.59
2022-08-17T14:55:00,kcc,35.39
2022-08-17T14:57:00,kcc,70.20
2022-08-17T14:59:00,kcc,68.44
2022-08-17T15:00:00,kcc,34.80
2022-08-17T15:02:00,kcc,76.17
2022-08-17T15:03:00,kcc,34.80
2022-08-17T15:05:00,kcc,82.21
2022-08-17T15:07:00,kcc,76.17
2022-08-17T15:09:00,kcc,72.01
2022-08-17T15:10:00,kcc,31.23
2022-08-17T15:12:00,kcc,60.59
2022-08-17T15:14:00,kcc,62.40
2022-08-17T15:16:00,kcc,58.18
2022-08-17T15:18:00,kcc,70.20
2022-08-17T15:19:00,kcc,43.18
2022-08-17T15:21:00,kcc,81.62
2022-08-17T15:23:00,kcc,84.02
2022-08-17T15:25:00,kcc,91.76
2022-08-17T15:26:00,kcc,40.84
2022-08-17T15:28:00,kcc,76.17
2022-08-17T15:29:00,kcc,34.80
2022-08-17T15:31:00,kcc,60.59
2022-08-17T15:33:00,kcc,52.79
2022-08-17T15:35:00,kcc,46.82
2022-08-17T15:37:00,kcc,50.39
2022-08-17T15:39:00,kcc,58.83
2022-08-17T15:41:00,kcc,62.40
2022-08-17T15:42:00,kcc,40.78
2022-08-17T15:43:00,kcc,40.78
2022-08-17T15:45:00,kcc,90.00
2022-08-17T15:46:00,kcc,46.82
2022-08-17T15:47:00,kcc,44.41
2022-08-17T15:49:00,kcc,85.78
2022-08-17T15:51:00,kcc,74.41
2022-08-17T15:52:00,kcc,34.80
2022-08-17T15:54:00,kcc,70.20
2022-08-17T15:55:00,kcc,35.39
2022-08-17T15:57:00,kcc,66.04
2022-08-17T15:59:00,kcc,62.40
2022-08-17T16:01:00,kcc,77.99
2022-08-17T16:02:00,kcc,37.21
2022-08-17T16:03:00,kcc,35.39
2022-08-17T16:05:00,kcc,70.20
2022-08-17T16:06:00,kcc,27.01
2022-08-17T16:08:00,kcc,50.98
2022-08-17T16:10:00,kcc,67.79
2022-08-17T16:12:00,kcc,66.62
2022-08-17T16:14:00,kcc,70.20
2022-08-17T16:16:00,kcc,83.96
2022-08-17T16:19:00,kcc,52.21
2022-08-17T16:21:00,kcc,91.82
2022-08-17T16:23:00,kcc,85.78
2022-08-17T16:25:00,kcc,68.38
2022-08-17T16:26:00,kcc,68.38
2022-08-17T16:27:00,kcc,54.61
2022-08-17T16:29:00,kcc,42.60
2022-08-17T16:30:00,kcc,21.62
2022-08-17T16:32:00,kcc,46.82
2022-08-17T16:34:00,kcc,52.79
2022-08-17T16:36:00,kcc,54.61
2022-08-17T16:37:00,kcc,26.95
2022-08-17T16:39:00,kcc,76.23
2022-08-17T16:40:00,kcc,38.96
2022-08-17T16:42:00,kcc,72.01
2022-08-17T16:44:00,kcc,74.41
2022-08-17T16:46:00,kcc,76.17
2022-08-17T16:47:00,kcc,36.62
2022-08-17T16:49:00,kcc,66.62
2022-08-17T16:50:00,kcc,31.17
2022-08-17T16:51:00,kcc,27.01
2022-08-17T16:52:00,kcc,33.57
2022-08-17T16:54:00,kcc,66.04
2022-08-17T16:56:00,kcc,70.20
2022-08-17T16:58:00,kcc,62.40
2022-08-17T17:00:00,kcc,58.77
2022-08-17T17:01:00,kcc,27.01
2022-08-17T17:03:00,kcc,58.83
2022-08-17T17:05:00,kcc,64.16
2022-08-17T17:07:00,kcc,78.05
2022-08-17T17:08:00,kcc,42.60
2022-08-17T17:09:00,kcc,41.37
2022-08-17T17:10:00,kcc,44.41
2022-08-17T17:12:00,kcc,88.18
2022-08-17T17:13:00,kcc,32.99
2022-08-17T17:15:00,kcc,60.64
2022-08-17T17:17:00,kcc,54.61
2022-08-17T17:19:00,kcc,67.79
2022-08-17T17:20:00,kcc,35.39
2022-08-17T17:22:00,kcc,58.18
2022-08-17T17:23:00,kcc,29.41
2022-08-17T17:24:00,kcc,27.60
2022-08-17T17:25:00,kcc,28.77
2022-08-17T17:27:00,kcc,54.61
2022-08-17T17:29:00,kcc,43.24
2022-08-17T17:31:00,kcc,42.60
2022-08-17T17:32:00,kcc,23.38
2022-08-17T17:33:00,kcc,23.38
2022-08-17T17:35:00,kcc,51.04
2022-08-17T17:37:00,kcc,54.61
2022-08-17T17:39:00,kcc,65.98
2022-08-17T17:41:00,kcc,68.38
2022-08-17T17:43:00,kcc,66.62
2022-08-17T17:45:00,kcc,54.61
2022-08-17T17:46:00,kcc,28.77
2022-08-17T17:48:00,kcc,57.01
2022-08-17T17:50:00,kcc,56.43
2022-08-17T17:52:00,kcc,42.60
2022-08-17T17:54:00,kcc,50.98
2022-08-17T17:55:00,kcc,23.38
2022-08-17T17:57:00,kcc,48.63
2022-08-17T17:59:00,kcc,48.57
2022-08-17T18:00:00,kcc,23.44
2022-08-17T18:01:00,kcc,25.78
2022-08-17T18:02:00,kcc,31.17
2022-08-17T18:04:00,kcc,62.40
2022-08-17T18:05:00,kcc,27.01
2022-08-17T18:07:00,kcc,66.62
2022-08-17T18:09:00,kcc,60.59
2022-08-17T18:10:00,kcc,21.04
2022-08-17T18:12:00,kcc,43.18
2022-08-17T18:13:00,kcc,19.16
2022-08-17T18:15:00,kcc,52.85
2022-08-17T18:17:00,kcc,58.77
2022-08-17T18:18:00,kcc,32.99
2022-08-17T18:20:00,kcc,67.79
2022-08-17T18:21:00,kcc,37.21
2022-08-17T18:23:00,kcc,60.64
2022-08-17T18:25:00,kcc,60.59
2022-08-17T18:26:00,kcc,27.01
2022-08-17T18:28:00,kcc,58.77
2022-08-17T18:30:00,kcc,56.43
2022-08-17T18:31:00,kcc,56.43
2022-08-17T18:32:00,kcc,56.37
2022-08-17T18:33:00,kcc,25.20
2022-08-17T18:35:00,kcc,54.61
2022-08-17T18:37:00,kcc,62.40
2022-08-17T18:38:00,kcc,35.39
2022-08-17T18:40:00,kcc,70.20
2022-08-17T18:42:00,kcc,68.44
2022-08-17T18:44:00,kcc,73.77
2022-08-17T18:45:00,kcc,32.99
2022-08-17T18:47:00,kcc,66.62
2022-08-17T18:49:00,kcc,40.78
2022-08-17T18:50:00,kcc,23.44
2022-08-17T18:52:00,kcc,56.37
2022-08-17T18:54:00,kcc,49.22
2022-08-17T18:56:00,kcc,58.18
2022-08-17T18:57:00,kcc,29.41
2022-08-17T18:58:00,kcc,37.21
2022-08-17T19:00:00,kcc,65.98
2022-08-17T19:02:00,kcc,70.20
2022-08-17T19:03:00,kcc,35.45
2022-08-17T19:05:00,kcc,65.98
2022-08-17T19:06:00,kcc,25.20
2022-08-17T19:08:00,kcc,45.00
2022-08-17T19:10:00,kcc,45.00
2022-08-17T19:11:00,kcc,21.62
2022-08-17T19:13:00,kcc,46.76
2022-08-17T19:15:00,kcc,46.82
2022-08-17T19:17:00,kcc,34.80
2022-08-17T19:18:00,kcc,17.40
2022-08-17T19:20:00,kcc,37.21
2022-08-17T19:21:00,kcc,23.38
2022-08-17T19:23:00,kcc,46.82
2022-08-17T19:24:00,kcc,19.80
2022-08-17T19:26:00,kcc,46.82
2022-08-17T19:28:00,kcc,40.78
2022-08-17T19:30:00,kcc,39.02
2022-08-17T19:32:00,kcc,32.99
2022-08-17T19:34:00,kcc,31.17
2022-08-17T19:35:00,kcc,15.59
2022-08-17T19:37:00,kcc,35.45
2022-08-17T19:39:00,kcc,32.99
2022-08-17T19:40:00,kcc,17.40
2022-08-17T19:42:00,kcc,43.18
2022-08-17T19:44:00,kcc,52.21
2022-08-17T19:46:00,kcc,43.18
2022-08-17T19:48:00,kcc,45.00
2022-08-17T19:49:00,kcc,21.04
2022-08-17T19:51:00,kcc,23.38
2022-08-17T19:53:00,kcc,21.62
2022-08-17T19:55:00,kcc,33.57
2022-08-17T19:56:00,kcc,17.40
2022-08-17T19:58:00,kcc,32.99
2022-08-17T19:59:00,kcc,17.40
2022-08-17T20:00:00,kcc,17.40
2022-08-17T20:02:00,kcc,33.63
2022-08-17T20:03:00,kcc,17.40
2022-08-17T20:05:00,kcc,32.99
2022-08-17T20:07:00,kcc,35.39
2022-08-17T20:09:00,kcc,32.99
2022-08-17T20:11:00,kcc,37.21
2022-08-17T20:13:00,kcc,34.80
2022-08-17T20:15:00,kcc,25.20
2022-08-17T20:16:00,kcc,15.59
2022-08-17T20:17:00,kcc,15.59
2022-08-17T20:19:00,kcc,33.63
2022-08-17T20:21:00,kcc,32.99
2022-08-17T20:23:00,kcc,29.41
2022-08-17T20:24:00,kcc,11.37
2022-08-17T20:26:00,kcc,17.40
2022-08-17T20:28:00,kcc,19.80
2022-08-17T20:29:00,kcc,7.79
2022-08-17T20:31:00,kcc,34.80
2022-08-17T20:33:00,kcc,37.21
2022-08-17T20:34:00,kcc,19.80
2022-08-17T20:35:00,kcc,25.20
2022-08-17T20:37:00,kcc,45.00
2022-08-17T20:38:00,kcc,17.40
2022-08-17T20:40:00,kcc,32.99
2022-08-17T20:41:00,kcc,17.40
2022-08-17T20:43:00,kcc,21.62
2022-08-17T20:45:00,kcc,19.80
2022-08-17T20:46:00,kcc,11.37
2022-08-17T20:48:00,kcc,33.05
2022-08-17T20:49:00,kcc,16.17
2022-08-17T20:50:00,kcc,13.18
2022-08-17T20:52:00,kcc,31.23
2022-08-17T20:54:00,kcc,31.17
2022-08-17T20:56:00,kcc,54.61
2022-08-17T20:58:00,kcc,51.04
2022-08-17T20:59:00,kcc,23.38
2022-08-17T21:01:00,kcc,39.02
2022-08-17T21:03:00,kcc,17.40
2022-08-17T21:04:00,kcc,9.55
2022-08-17T21:06:00,kcc,17.40
2022-08-17T21:08:00,kcc,19.80
2022-08-17T21:10:00,kcc,19.22
2022-08-17T21:12:00,kcc,29.41
2022-08-17T21:13:00,kcc,15.59
2022-08-17T21:15:00,kcc,29.41
2022-08-17T21:17:00,kcc,29.36
2022-08-17T21:18:00,kcc,9.61
2022-08-17T21:20:00,kcc,15.64
2022-08-17T21:21:00,kcc,15.59
2022-08-17T21:23:00,kcc,31.17
2022-08-17T21:24:00,kcc,17.40
2022-08-17T21:25:00,kcc,17.40
2022-08-17T21:27:00,kcc,37.21
2022-08-17T21:28:00,kcc,12.01
2022-08-17T21:30:00,kcc,31.17
2022-08-17T21:32:00,kcc,34.80
2022-08-17T21:33:00,kcc,17.40
2022-08-17T21:35:00,kcc,33.63
2022-08-17T21:37:00,kcc,26.95
2022-08-17T21:38:00,kcc,9.61
2022-08-17T21:40:00,kcc,25.84
2022-08-17T21:41:00,kcc,7.79
2022-08-17T21:43:00,kcc,17.40
2022-08-17T21:45:00,kcc,17.40
2022-08-17T21:47:00,kcc,21.56
2022-08-17T21:48:00,kcc,21.62
2022-08-17T21:50:00,kcc,46.82
2022-08-17T21:51:00,kcc,25.20
2022-08-17T21:53:00,kcc,46.76
2022-08-17T21:55:00,kcc,27.01
2022-08-17T21:56:00,kcc,10.20
2022-08-17T21:58:00,kcc,19.22
2022-08-17T22:00:00,kcc,17.40
2022-08-17T22:01:00,kcc,10.20
2022-08-17T22:03:00,kcc,20.98
2022-08-17T22:04:00,kcc,12.01
2022-08-17T22:06:00,kcc,31.23
2022-08-17T22:08:00,kcc,31.17
2022-08-17T22:09:00,kcc,15.59
2022-08-17T22:10:00,kcc,13.83
2022-08-17T22:11:00,kcc,15.59
2022-08-17T22:13:00,kcc,17.40
2022-08-17T22:15:00,kcc,17.40
2022-08-17T22:16:00,kcc,15.59